Year,Month,Day,Hour,Minute,Value (Times are PST for windgust in km/hr)
2016,10,07,00,00,74.00
2016,10,07,00,01,66.00
2016,10,07,00,02,69.20
2016,10,07,00,03,53.10
2016,10,07,00,04,56.30
2016,10,07,00,05,74.00
2016,10,07,00,06,74.00
2016,10,07,00,07,72.40
2016,10,07,00,08,67.60
2016,10,07,00,09,64.40
2016,10,07,00,10,62.70
2016,10,07,00,11,70.80
2016,10,07,00,12,59.50
2016,10,07,00,13,57.90
2016,10,07,00,14,67.60
2016,10,07,00,15,67.60
2016,10,07,00,16,70.80
2016,10,07,00,17,57.90
2016,10,07,00,18,56.30
2016,10,07,00,19,61.20
2016,10,07,00,20,64.40
2016,10,07,00,21,59.50
2016,10,07,00,22,67.60
2016,10,07,00,23,53.10
2016,10,07,00,24,61.20
2016,10,07,00,25,59.50
2016,10,07,00,26,46.70
2016,10,07,00,27,57.90
2016,10,07,00,28,66.00
2016,10,07,00,29,61.20
2016,10,07,00,30,64.40
2016,10,07,00,31,62.70
2016,10,07,00,32,62.70
2016,10,07,00,33,64.40
2016,10,07,00,34,66.00
2016,10,07,00,35,61.20
2016,10,07,00,36,62.70
2016,10,07,00,37,61.20
2016,10,07,00,38,61.20
2016,10,07,00,39,64.40
2016,10,07,00,40,59.50
2016,10,07,00,41,62.70
2016,10,07,00,42,54.70
2016,10,07,00,43,54.70
2016,10,07,00,44,64.40
2016,10,07,00,45,64.40
2016,10,07,00,46,64.40
2016,10,07,00,47,53.10
2016,10,07,00,48,57.90
2016,10,07,00,49,66.00
2016,10,07,00,50,48.30
2016,10,07,00,51,56.30
2016,10,07,00,52,64.40
2016,10,07,00,53,64.40
2016,10,07,00,54,57.90
2016,10,07,00,55,56.30
2016,10,07,00,56,62.70
2016,10,07,00,57,66.00
2016,10,07,00,58,66.00
2016,10,07,00,59,57.90
2016,10,07,01,00,46.70
2016,10,07,01,01,66.00
2016,10,07,01,02,67.60
2016,10,07,01,03,74.00
2016,10,07,01,04,62.70
2016,10,07,01,05,61.20
2016,10,07,01,06,61.20
2016,10,07,01,07,72.40
2016,10,07,01,08,57.90
2016,10,07,01,09,62.70
2016,10,07,01,10,59.50
2016,10,07,01,11,57.90
2016,10,07,01,12,62.70
2016,10,07,01,13,66.00
2016,10,07,01,14,51.50
2016,10,07,01,15,40.20
2016,10,07,01,16,69.20
2016,10,07,01,17,64.40
2016,10,07,01,18,48.30
2016,10,07,01,19,43.50
2016,10,07,01,20,49.90
2016,10,07,01,21,46.70
2016,10,07,01,22,64.40
2016,10,07,01,23,59.50
2016,10,07,01,24,62.70
2016,10,07,01,25,59.50
2016,10,07,01,26,56.30
2016,10,07,01,27,46.70
2016,10,07,01,28,48.30
2016,10,07,01,29,53.10
2016,10,07,01,30,45.10
2016,10,07,01,31,48.30
2016,10,07,01,32,51.50
2016,10,07,01,33,48.30
2016,10,07,01,34,51.50
2016,10,07,01,35,54.70
2016,10,07,01,36,61.20
2016,10,07,01,37,51.50
2016,10,07,01,38,59.50
2016,10,07,01,39,54.70
2016,10,07,01,40,54.70
2016,10,07,01,41,56.30
2016,10,07,01,42,49.90
2016,10,07,01,43,51.50
2016,10,07,01,44,49.90
2016,10,07,01,45,53.10
2016,10,07,01,46,62.70
2016,10,07,01,47,57.90
2016,10,07,01,48,49.90
2016,10,07,01,49,49.90
2016,10,07,01,50,46.70
2016,10,07,01,51,49.90
2016,10,07,01,52,51.50
2016,10,07,01,53,51.50
2016,10,07,01,54,48.30
2016,10,07,01,55,46.70
2016,10,07,01,56,41.80
2016,10,07,01,57,41.80
2016,10,07,01,58,49.90
2016,10,07,01,59,49.90
2016,10,07,02,00,48.30
2016,10,07,02,01,33.80
2016,10,07,02,02,41.80
2016,10,07,02,03,30.60
2016,10,07,02,04,33.80
2016,10,07,02,05,35.40
2016,10,07,02,06,37.00
2016,10,07,02,07,35.40
2016,10,07,02,08,40.20
2016,10,07,02,09,48.30
2016,10,07,02,10,41.80
2016,10,07,02,11,45.10
2016,10,07,02,12,51.50
2016,10,07,02,13,30.60
2016,10,07,02,14,33.80
2016,10,07,02,15,38.60
2016,10,07,02,16,35.40
2016,10,07,02,17,38.60
2016,10,07,02,18,37.00
2016,10,07,02,19,29.00
2016,10,07,02,20,25.70
2016,10,07,02,21,16.10
2016,10,07,02,22,16.10
2016,10,07,02,23,16.10
2016,10,07,02,24,22.50
2016,10,07,02,25,20.90
2016,10,07,02,26,16.10
2016,10,07,02,27,12.90
2016,10,07,02,28,12.90
2016,10,07,02,29,12.90
2016,10,07,02,30,12.90
2016,10,07,02,31,12.90
2016,10,07,02,32,12.90
2016,10,07,02,33,12.90
2016,10,07,02,34,16.10
2016,10,07,02,35,19.30
2016,10,07,02,36,17.70
2016,10,07,02,37,16.10
2016,10,07,02,38,20.90
2016,10,07,02,39,25.70
2016,10,07,02,40,27.40
2016,10,07,02,41,19.30
2016,10,07,02,42,12.90
2016,10,07,02,43,12.90
2016,10,07,02,44,12.90
2016,10,07,02,45,9.60
2016,10,07,02,46,9.60
2016,10,07,02,47,9.60
2016,10,07,02,48,9.60
2016,10,07,02,49,8.10
2016,10,07,02,50,6.40
2016,10,07,02,51,14.50
2016,10,07,02,52,25.70
2016,10,07,02,53,22.50
2016,10,07,02,54,12.90
2016,10,07,02,55,20.90
2016,10,07,02,56,11.30
2016,10,07,02,57,29.00
2016,10,07,02,58,25.70
2016,10,07,02,59,25.70
2016,10,07,03,00,17.70
2016,10,07,03,01,25.70
2016,10,07,03,02,19.30
2016,10,07,03,03,16.10
2016,10,07,03,04,14.50
2016,10,07,03,05,16.10
2016,10,07,03,06,24.20
2016,10,07,03,07,19.30
2016,10,07,03,08,11.30
2016,10,07,03,09,16.10
2016,10,07,03,10,20.90
2016,10,07,03,11,30.60
2016,10,07,03,12,29.00
2016,10,07,03,13,24.20
2016,10,07,03,14,25.70
2016,10,07,03,15,29.00
2016,10,07,03,16,43.50
2016,10,07,03,17,37.00
2016,10,07,03,18,35.40
2016,10,07,03,19,29.00
2016,10,07,03,20,32.20
2016,10,07,03,21,43.50
2016,10,07,03,22,38.60
2016,10,07,03,23,27.40
2016,10,07,03,24,32.20
2016,10,07,03,25,24.20
2016,10,07,03,26,33.80
2016,10,07,03,27,32.20
2016,10,07,03,28,35.40
2016,10,07,03,29,38.60
2016,10,07,03,30,37.00
2016,10,07,03,31,35.40
2016,10,07,03,32,24.20
2016,10,07,03,33,33.80
2016,10,07,03,34,33.80
2016,10,07,03,35,45.10
2016,10,07,03,36,35.40
2016,10,07,03,37,35.40
2016,10,07,03,38,24.20
2016,10,07,03,39,37.00
2016,10,07,03,40,37.00
2016,10,07,03,41,37.00
2016,10,07,03,42,35.40
2016,10,07,03,43,33.80
2016,10,07,03,44,29.00
2016,10,07,03,45,37.00
2016,10,07,03,46,24.20
2016,10,07,03,47,27.40
2016,10,07,03,48,22.50
2016,10,07,03,49,32.20
2016,10,07,03,50,27.40
2016,10,07,03,51,27.40
2016,10,07,03,52,29.00
2016,10,07,03,53,32.20
2016,10,07,03,54,20.90
2016,10,07,03,55,16.10
2016,10,07,03,56,25.70
2016,10,07,03,57,35.40
2016,10,07,03,58,24.20
2016,10,07,03,59,22.50
2016,10,07,04,00,24.20
2016,10,07,04,01,25.70
2016,10,07,04,02,27.40
2016,10,07,04,03,32.20
2016,10,07,04,04,29.00
2016,10,07,04,05,29.00
2016,10,07,04,06,32.20
2016,10,07,04,07,37.00
2016,10,07,04,08,35.40
2016,10,07,04,09,30.60
2016,10,07,04,10,29.00
2016,10,07,04,11,22.50
2016,10,07,04,12,29.00
2016,10,07,04,13,30.60
2016,10,07,04,14,33.80
2016,10,07,04,15,22.50
2016,10,07,04,16,29.00
2016,10,07,04,17,29.00
2016,10,07,04,18,27.40
2016,10,07,04,19,32.20
2016,10,07,04,20,32.20
2016,10,07,04,21,27.40
2016,10,07,04,22,24.20
2016,10,07,04,23,25.70
2016,10,07,04,24,41.80
2016,10,07,04,25,32.20
2016,10,07,04,26,29.00
2016,10,07,04,27,41.80
2016,10,07,04,28,33.80
2016,10,07,04,29,33.80
2016,10,07,04,30,25.70
2016,10,07,04,31,22.50
2016,10,07,04,32,30.60
2016,10,07,04,33,22.50
2016,10,07,04,34,24.20
2016,10,07,04,35,24.20
2016,10,07,04,36,30.60
2016,10,07,04,37,40.20
2016,10,07,04,38,27.40
2016,10,07,04,39,43.50
2016,10,07,04,40,33.80
2016,10,07,04,41,22.50
2016,10,07,04,42,41.80
2016,10,07,04,43,24.20
2016,10,07,04,44,33.80
2016,10,07,04,45,41.80
2016,10,07,04,46,30.60
2016,10,07,04,47,30.60
2016,10,07,04,48,33.80
2016,10,07,04,49,37.00
2016,10,07,04,50,38.60
2016,10,07,04,51,30.60
2016,10,07,04,52,30.60
2016,10,07,04,53,43.50
2016,10,07,04,54,32.20
2016,10,07,04,55,38.60
2016,10,07,04,56,27.40
2016,10,07,04,57,41.80
2016,10,07,04,58,48.30
2016,10,07,04,59,40.20
2016,10,07,05,00,37.00
2016,10,07,05,01,35.40
2016,10,07,05,02,41.80
2016,10,07,05,03,29.00
2016,10,07,05,04,29.00
2016,10,07,05,05,43.50
2016,10,07,05,06,54.70
2016,10,07,05,07,41.80
2016,10,07,05,08,40.20
2016,10,07,05,09,30.60
2016,10,07,05,10,33.80
2016,10,07,05,11,41.80
2016,10,07,05,12,29.00
2016,10,07,05,13,37.00
2016,10,07,05,14,32.20
2016,10,07,05,15,40.20
2016,10,07,05,16,38.60
2016,10,07,05,17,33.80
2016,10,07,05,18,46.70
2016,10,07,05,19,24.20
2016,10,07,05,20,35.40
2016,10,07,05,21,37.00
2016,10,07,05,22,40.20
2016,10,07,05,23,35.40
2016,10,07,05,24,45.10
2016,10,07,05,25,29.00
2016,10,07,05,26,25.70
2016,10,07,05,27,38.60
2016,10,07,05,28,45.10
2016,10,07,05,29,38.60
2016,10,07,05,30,46.70
2016,10,07,05,31,40.20
2016,10,07,05,32,45.10
2016,10,07,05,33,30.60
2016,10,07,05,34,43.50
2016,10,07,05,35,40.20
2016,10,07,05,36,33.80
2016,10,07,05,37,32.20
2016,10,07,05,38,37.00
2016,10,07,05,39,32.20
2016,10,07,05,40,38.60
2016,10,07,05,41,48.30
2016,10,07,05,42,38.60
2016,10,07,05,43,43.50
2016,10,07,05,44,51.50
2016,10,07,05,45,30.60
2016,10,07,05,46,29.00
2016,10,07,05,47,32.20
2016,10,07,05,48,43.50
2016,10,07,05,49,46.70
2016,10,07,05,50,48.30
2016,10,07,05,51,61.20
2016,10,07,05,52,53.10
2016,10,07,05,53,27.40
2016,10,07,05,54,32.20
2016,10,07,05,55,41.80
2016,10,07,05,56,40.20
2016,10,07,05,57,46.70
2016,10,07,05,58,45.10
2016,10,07,05,59,46.70
2016,10,07,06,00,37.00
2016,10,07,06,01,43.50
2016,10,07,06,02,49.90
2016,10,07,06,03,38.60
2016,10,07,06,04,33.80
2016,10,07,06,05,38.60
2016,10,07,06,06,43.50
2016,10,07,06,07,30.60
2016,10,07,06,08,38.60
2016,10,07,06,09,37.00
2016,10,07,06,10,38.60
2016,10,07,06,11,32.20
2016,10,07,06,12,48.30
2016,10,07,06,13,40.20
2016,10,07,06,14,35.40
2016,10,07,06,15,30.60
2016,10,07,06,16,33.80
2016,10,07,06,17,30.60
2016,10,07,06,18,45.10
2016,10,07,06,19,37.00
2016,10,07,06,20,43.50
2016,10,07,06,21,41.80
2016,10,07,06,22,33.80
2016,10,07,06,23,40.20
2016,10,07,06,24,30.60
2016,10,07,06,25,35.40
2016,10,07,06,26,30.60
2016,10,07,06,27,37.00
2016,10,07,06,28,22.50
2016,10,07,06,29,38.60
2016,10,07,06,30,38.60
2016,10,07,06,31,38.60
2016,10,07,06,32,22.50
2016,10,07,06,33,51.50
2016,10,07,06,34,45.10
2016,10,07,06,35,37.00
2016,10,07,06,36,38.60
2016,10,07,06,37,43.50
2016,10,07,06,38,41.80
2016,10,07,06,39,43.50
2016,10,07,06,40,32.20
2016,10,07,06,41,22.50
2016,10,07,06,42,40.20
2016,10,07,06,43,37.00
2016,10,07,06,44,35.40
2016,10,07,06,45,38.60
2016,10,07,06,46,40.20
2016,10,07,06,47,56.30
2016,10,07,06,48,41.80
2016,10,07,06,49,40.20
2016,10,07,06,50,33.80
2016,10,07,06,51,45.10
2016,10,07,06,52,35.40
2016,10,07,06,53,43.50
2016,10,07,06,54,40.20
2016,10,07,06,55,45.10
2016,10,07,06,56,37.00
2016,10,07,06,57,33.80
2016,10,07,06,58,40.20
2016,10,07,06,59,37.00
2016,10,07,07,00,45.10
2016,10,07,07,01,38.60
2016,10,07,07,02,40.20
2016,10,07,07,03,48.30
2016,10,07,07,04,45.10
2016,10,07,07,05,49.90
2016,10,07,07,06,46.70
2016,10,07,07,07,32.20
2016,10,07,07,08,48.30
2016,10,07,07,09,32.20
2016,10,07,07,10,41.80
2016,10,07,07,11,49.90
2016,10,07,07,12,41.80
2016,10,07,07,13,40.20
2016,10,07,07,14,38.60
2016,10,07,07,15,46.70
2016,10,07,07,16,37.00
2016,10,07,07,17,35.40
2016,10,07,07,18,48.30
2016,10,07,07,19,41.80
2016,10,07,07,20,40.20
2016,10,07,07,21,29.00
2016,10,07,07,22,27.40
2016,10,07,07,23,41.80
2016,10,07,07,24,35.40
2016,10,07,07,25,40.20
2016,10,07,07,26,38.60
2016,10,07,07,27,24.20
2016,10,07,07,28,43.50
2016,10,07,07,29,32.20
2016,10,07,07,30,32.20
2016,10,07,07,31,33.80
2016,10,07,07,32,30.60
2016,10,07,07,33,35.40
2016,10,07,07,34,30.60
2016,10,07,07,35,25.70
2016,10,07,07,36,29.00
2016,10,07,07,37,32.20
2016,10,07,07,38,29.00
2016,10,07,07,39,24.20
2016,10,07,07,40,38.60
2016,10,07,07,41,37.00
2016,10,07,07,42,29.00
2016,10,07,07,43,38.60
2016,10,07,07,44,32.20
2016,10,07,07,45,38.60
2016,10,07,07,46,24.20
2016,10,07,07,47,24.20
2016,10,07,07,48,29.00
2016,10,07,07,49,29.00
2016,10,07,07,50,17.70
2016,10,07,07,51,40.20
2016,10,07,07,52,32.20
2016,10,07,07,53,35.40
2016,10,07,07,54,38.60
2016,10,07,07,55,37.00
2016,10,07,07,56,35.40
2016,10,07,07,57,32.20
2016,10,07,07,58,46.70
2016,10,07,07,59,32.20
2016,10,07,08,00,35.40
2016,10,07,08,01,24.20
2016,10,07,08,02,45.10
2016,10,07,08,03,41.80
2016,10,07,08,04,27.40
2016,10,07,08,05,27.40
2016,10,07,08,06,29.00
2016,10,07,08,07,30.60
2016,10,07,08,08,30.60
2016,10,07,08,09,20.90
2016,10,07,08,10,25.70
2016,10,07,08,11,37.00
2016,10,07,08,12,43.50
2016,10,07,08,13,43.50
2016,10,07,08,14,35.40
2016,10,07,08,15,40.20
2016,10,07,08,16,29.00
2016,10,07,08,17,45.10
2016,10,07,08,18,30.60
2016,10,07,08,19,32.20
2016,10,07,08,20,30.60
2016,10,07,08,21,27.40
2016,10,07,08,22,43.50
2016,10,07,08,23,35.40
2016,10,07,08,24,37.00
2016,10,07,08,25,30.60
2016,10,07,08,26,33.80
2016,10,07,08,27,48.30
2016,10,07,08,28,43.50
2016,10,07,08,29,27.40
2016,10,07,08,30,27.40
2016,10,07,08,31,49.90
2016,10,07,08,32,43.50
2016,10,07,08,33,32.20
2016,10,07,08,34,43.50
2016,10,07,08,35,32.20
2016,10,07,08,36,46.70
2016,10,07,08,37,38.60
2016,10,07,08,38,35.40
2016,10,07,08,39,41.80
2016,10,07,08,40,30.60
2016,10,07,08,41,33.80
2016,10,07,08,42,27.40
2016,10,07,08,43,35.40
2016,10,07,08,44,37.00
2016,10,07,08,45,32.20
2016,10,07,08,46,54.70
2016,10,07,08,47,37.00
2016,10,07,08,48,32.20
2016,10,07,08,49,27.40
2016,10,07,08,50,25.70
2016,10,07,08,51,37.00
2016,10,07,08,52,46.70
2016,10,07,08,53,35.40
2016,10,07,08,54,33.80
2016,10,07,08,55,45.10
2016,10,07,08,56,41.80
2016,10,07,08,57,40.20
2016,10,07,08,58,27.40
2016,10,07,08,59,38.60
2016,10,07,09,00,33.80
2016,10,07,09,01,30.60
2016,10,07,09,02,32.20
2016,10,07,09,03,29.00
2016,10,07,09,04,29.00
2016,10,07,09,05,48.30
2016,10,07,09,06,41.80
2016,10,07,09,07,37.00
2016,10,07,09,08,40.20
2016,10,07,09,09,37.00
2016,10,07,09,10,27.40
2016,10,07,09,11,30.60
2016,10,07,09,12,27.40
2016,10,07,09,13,43.50
2016,10,07,09,14,33.80
2016,10,07,09,15,30.60
2016,10,07,09,16,30.60
2016,10,07,09,17,33.80
2016,10,07,09,18,33.80
2016,10,07,09,19,29.00
2016,10,07,09,20,24.20
2016,10,07,09,21,24.20
2016,10,07,09,22,29.00
2016,10,07,09,23,22.50
2016,10,07,09,24,25.70
2016,10,07,09,25,27.40
2016,10,07,09,26,30.60
2016,10,07,09,27,17.70
2016,10,07,09,28,37.00
2016,10,07,09,29,27.40
2016,10,07,09,30,16.10
2016,10,07,09,31,25.70
2016,10,07,09,32,35.40
2016,10,07,09,33,35.40
2016,10,07,09,34,24.20
2016,10,07,09,35,22.50
2016,10,07,09,36,22.50
2016,10,07,09,37,25.70
2016,10,07,09,38,17.70
2016,10,07,09,39,12.90
2016,10,07,09,40,16.10
2016,10,07,09,41,19.30
2016,10,07,09,42,11.30
2016,10,07,09,43,14.50
2016,10,07,09,44,20.90
2016,10,07,09,45,20.90
2016,10,07,09,46,19.30
2016,10,07,09,47,20.90
2016,10,07,09,48,16.10
2016,10,07,09,49,25.70
2016,10,07,09,50,24.20
2016,10,07,09,51,17.70
2016,10,07,09,52,29.00
2016,10,07,09,53,17.70
2016,10,07,09,54,9.60
2016,10,07,09,55,20.90
2016,10,07,09,56,24.20
2016,10,07,09,57,25.70
2016,10,07,09,58,29.00
2016,10,07,09,59,24.20
2016,10,07,10,00,20.90
2016,10,07,10,01,19.30
2016,10,07,10,02,16.10
2016,10,07,10,03,14.50
2016,10,07,10,04,20.90
2016,10,07,10,05,17.70
2016,10,07,10,06,19.30
2016,10,07,10,07,24.20
2016,10,07,10,08,17.70
2016,10,07,10,09,11.30
2016,10,07,10,10,11.30
2016,10,07,10,11,8.10
2016,10,07,10,12,22.50
2016,10,07,10,13,19.30
2016,10,07,10,14,17.70
2016,10,07,10,15,9.60
2016,10,07,10,16,27.40
2016,10,07,10,17,16.10
2016,10,07,10,18,17.70
2016,10,07,10,19,14.50
2016,10,07,10,20,25.70
2016,10,07,10,21,17.70
2016,10,07,10,22,16.10
2016,10,07,10,23,16.10
2016,10,07,10,24,17.70
2016,10,07,10,25,16.10
2016,10,07,10,26,25.70
2016,10,07,10,27,20.90
2016,10,07,10,28,17.70
2016,10,07,10,29,25.70
2016,10,07,10,30,11.30
2016,10,07,10,31,16.10
2016,10,07,10,32,9.60
2016,10,07,10,33,11.30
2016,10,07,10,34,8.10
2016,10,07,10,35,16.10
2016,10,07,10,36,19.30
2016,10,07,10,37,11.30
2016,10,07,10,38,33.80
2016,10,07,10,39,25.70
2016,10,07,10,40,11.30
2016,10,07,10,41,20.90
2016,10,07,10,42,22.50
2016,10,07,10,43,24.20
2016,10,07,10,44,19.30
2016,10,07,10,45,16.10
2016,10,07,10,46,24.20
2016,10,07,10,47,19.30
2016,10,07,10,48,25.70
2016,10,07,10,49,16.10
2016,10,07,10,50,16.10
2016,10,07,10,51,30.60
2016,10,07,10,52,29.00
2016,10,07,10,53,25.70
2016,10,07,10,54,37.00
2016,10,07,10,55,32.20
2016,10,07,10,56,37.00
2016,10,07,10,57,37.00
2016,10,07,10,58,8.10
2016,10,07,10,59,19.30
2016,10,07,11,00,30.60
2016,10,07,11,01,35.40
2016,10,07,11,02,27.40
2016,10,07,11,03,32.20
2016,10,07,11,04,38.60
2016,10,07,11,05,20.90
2016,10,07,11,06,30.60
2016,10,07,11,07,22.50
2016,10,07,11,08,17.70
2016,10,07,11,09,11.30
2016,10,07,11,10,14.50
2016,10,07,11,11,14.50
2016,10,07,11,12,14.50
2016,10,07,11,13,25.70
2016,10,07,11,14,33.80
2016,10,07,11,15,22.50
2016,10,07,11,16,29.00
2016,10,07,11,17,27.40
2016,10,07,11,18,24.20
2016,10,07,11,19,27.40
2016,10,07,11,20,12.90
2016,10,07,11,21,14.50
2016,10,07,11,22,24.20
2016,10,07,11,23,29.00
2016,10,07,11,24,16.10
2016,10,07,11,25,14.50
2016,10,07,11,26,11.30
2016,10,07,11,27,8.10
2016,10,07,11,28,19.30
2016,10,07,11,29,16.10
2016,10,07,11,30,11.30
2016,10,07,11,31,22.50
2016,10,07,11,32,17.70
2016,10,07,11,33,14.50
2016,10,07,11,34,8.10
2016,10,07,11,35,12.90
2016,10,07,11,36,16.10
2016,10,07,11,37,17.70
2016,10,07,11,38,9.60
2016,10,07,11,39,11.30
2016,10,07,11,40,19.30
2016,10,07,11,41,20.90
2016,10,07,11,42,19.30
2016,10,07,11,43,4.80
2016,10,07,11,44,17.70
2016,10,07,11,45,29.00
2016,10,07,11,46,29.00
2016,10,07,11,47,22.50
2016,10,07,11,48,20.90
2016,10,07,11,49,20.90
2016,10,07,11,50,14.50
2016,10,07,11,51,27.40
2016,10,07,11,52,16.10
2016,10,07,11,53,24.20
2016,10,07,11,54,16.10
2016,10,07,11,55,14.50
2016,10,07,11,56,3.20
2016,10,07,11,57,8.10
2016,10,07,11,58,9.60
2016,10,07,11,59,3.20
2016,10,07,12,00,11.30
2016,10,07,12,01,16.10
2016,10,07,12,02,11.30
2016,10,07,12,03,20.90
2016,10,07,12,04,20.90
2016,10,07,12,05,17.70
2016,10,07,12,06,27.40
2016,10,07,12,07,27.40
2016,10,07,12,08,29.00
2016,10,07,12,09,16.10
2016,10,07,12,10,27.40
2016,10,07,12,11,22.50
2016,10,07,12,12,22.50
2016,10,07,12,13,24.20
2016,10,07,12,14,27.40
2016,10,07,12,15,27.40
2016,10,07,12,16,24.20
2016,10,07,12,17,17.70
2016,10,07,12,18,33.80
2016,10,07,12,19,22.50
2016,10,07,12,20,27.40
2016,10,07,12,21,41.80
2016,10,07,12,22,24.20
2016,10,07,12,23,29.00
2016,10,07,12,24,30.60
2016,10,07,12,25,22.50
2016,10,07,12,26,25.70
2016,10,07,12,27,20.90
2016,10,07,12,28,33.80
2016,10,07,12,29,25.70
2016,10,07,12,30,14.50
2016,10,07,12,31,24.20
2016,10,07,12,32,32.20
2016,10,07,12,33,32.20
2016,10,07,12,34,22.50
2016,10,07,12,35,19.30
2016,10,07,12,36,19.30
2016,10,07,12,37,25.70
2016,10,07,12,38,22.50
2016,10,07,12,39,27.40
2016,10,07,12,40,29.00
2016,10,07,12,41,30.60
2016,10,07,12,42,20.90
2016,10,07,12,43,29.00
2016,10,07,12,44,12.90
2016,10,07,12,45,20.90
2016,10,07,12,46,29.00
2016,10,07,12,47,20.90
2016,10,07,12,48,19.30
2016,10,07,12,49,27.40
2016,10,07,12,50,19.30
2016,10,07,12,51,24.20
2016,10,07,12,52,19.30
2016,10,07,12,53,30.60
2016,10,07,12,54,25.70
2016,10,07,12,55,27.40
2016,10,07,12,56,20.90
2016,10,07,12,57,25.70
2016,10,07,12,58,27.40
2016,10,07,12,59,27.40
2016,10,07,13,00,22.50
2016,10,07,13,01,25.70
2016,10,07,13,02,24.20
2016,10,07,13,03,27.40
2016,10,07,13,04,22.50
2016,10,07,13,05,20.90
2016,10,07,13,06,16.10
2016,10,07,13,07,24.20
2016,10,07,13,08,22.50
2016,10,07,13,09,22.50
2016,10,07,13,10,25.70
2016,10,07,13,11,19.30
2016,10,07,13,12,19.30
2016,10,07,13,13,33.80
2016,10,07,13,14,25.70
2016,10,07,13,15,17.70
2016,10,07,13,16,22.50
2016,10,07,13,17,17.70
2016,10,07,13,18,22.50
2016,10,07,13,19,12.90
2016,10,07,13,20,25.70
2016,10,07,13,21,17.70
2016,10,07,13,22,12.90
2016,10,07,13,23,19.30
2016,10,07,13,24,20.90
2016,10,07,13,25,20.90
2016,10,07,13,26,25.70
2016,10,07,13,27,24.20
2016,10,07,13,28,22.50
2016,10,07,13,29,24.20
2016,10,07,13,30,17.70
2016,10,07,13,31,20.90
2016,10,07,13,32,22.50
2016,10,07,13,33,16.10
2016,10,07,13,34,22.50
2016,10,07,13,35,24.20
2016,10,07,13,36,24.20
2016,10,07,13,37,25.70
2016,10,07,13,38,27.40
2016,10,07,13,39,27.40
2016,10,07,13,40,16.10
2016,10,07,13,41,20.90
2016,10,07,13,42,24.20
2016,10,07,13,43,29.00
2016,10,07,13,44,22.50
2016,10,07,13,45,14.50
2016,10,07,13,46,20.90
2016,10,07,13,47,20.90
2016,10,07,13,48,24.20
2016,10,07,13,49,17.70
2016,10,07,13,50,17.70
2016,10,07,13,51,17.70
2016,10,07,13,52,22.50
2016,10,07,13,53,22.50
2016,10,07,13,54,19.30
2016,10,07,13,55,17.70
2016,10,07,13,56,17.70
2016,10,07,13,57,20.90
2016,10,07,13,58,12.90
2016,10,07,13,59,16.10
2016,10,07,14,00,25.70
2016,10,07,14,01,14.50
2016,10,07,14,02,17.70
2016,10,07,14,03,20.90
2016,10,07,14,04,25.70
2016,10,07,14,05,14.50
2016,10,07,14,06,19.30
2016,10,07,14,07,20.90
2016,10,07,14,08,22.50
2016,10,07,14,09,24.20
2016,10,07,14,10,29.00
2016,10,07,14,11,24.20
2016,10,07,14,12,12.90
2016,10,07,14,13,22.50
2016,10,07,14,14,25.70
2016,10,07,14,15,20.90
2016,10,07,14,16,19.30
2016,10,07,14,17,27.40
2016,10,07,14,18,22.50
2016,10,07,14,19,24.20
2016,10,07,14,20,24.20
2016,10,07,14,21,24.20
2016,10,07,14,22,24.20
2016,10,07,14,23,20.90
2016,10,07,14,24,20.90
2016,10,07,14,25,9.60
2016,10,07,14,26,16.10
2016,10,07,14,27,32.20
2016,10,07,14,28,29.00
2016,10,07,14,29,22.50
2016,10,07,14,30,17.70
2016,10,07,14,31,11.30
2016,10,07,14,32,17.70
2016,10,07,14,33,20.90
2016,10,07,14,34,24.20
2016,10,07,14,35,30.60
2016,10,07,14,36,25.70
2016,10,07,14,37,22.50
2016,10,07,14,38,20.90
2016,10,07,14,39,22.50
2016,10,07,14,40,37.00
2016,10,07,14,41,30.60
2016,10,07,14,42,27.40
2016,10,07,14,43,22.50
2016,10,07,14,44,24.20
2016,10,07,14,45,25.70
2016,10,07,14,46,33.80
2016,10,07,14,47,24.20
2016,10,07,14,48,19.30
2016,10,07,14,49,25.70
2016,10,07,14,50,20.90
2016,10,07,14,51,25.70
2016,10,07,14,52,30.60
2016,10,07,14,53,25.70
2016,10,07,14,54,25.70
2016,10,07,14,55,24.20
2016,10,07,14,56,20.90
2016,10,07,14,57,19.30
2016,10,07,14,58,16.10
2016,10,07,14,59,25.70
2016,10,07,15,00,22.50
2016,10,07,15,01,14.50
2016,10,07,15,02,19.30
2016,10,07,15,03,19.30
2016,10,07,15,04,19.30
2016,10,07,15,05,19.30
2016,10,07,15,06,25.70
2016,10,07,15,07,24.20
2016,10,07,15,08,19.30
2016,10,07,15,09,17.70
2016,10,07,15,10,22.50
2016,10,07,15,11,20.90
2016,10,07,15,12,17.70
2016,10,07,15,13,16.10
2016,10,07,15,14,17.70
2016,10,07,15,15,17.70
2016,10,07,15,16,12.90
2016,10,07,15,17,16.10
2016,10,07,15,18,16.10
2016,10,07,15,19,12.90
2016,10,07,15,20,14.50
2016,10,07,15,21,14.50
2016,10,07,15,22,19.30
2016,10,07,15,23,17.70
2016,10,07,15,24,16.10
2016,10,07,15,25,12.90
2016,10,07,15,26,16.10
2016,10,07,15,27,16.10
2016,10,07,15,28,20.90
2016,10,07,15,29,27.40
2016,10,07,15,30,29.00
2016,10,07,15,31,27.40
2016,10,07,15,32,27.40
2016,10,07,15,33,17.70
2016,10,07,15,34,24.20
2016,10,07,15,35,22.50
2016,10,07,15,36,16.10
2016,10,07,15,37,14.50
2016,10,07,15,38,20.90
2016,10,07,15,39,22.50
2016,10,07,15,40,25.70
2016,10,07,15,41,24.20
2016,10,07,15,42,16.10
2016,10,07,15,43,19.30
2016,10,07,15,44,17.70
2016,10,07,15,45,17.70
2016,10,07,15,46,14.50
2016,10,07,15,47,20.90
2016,10,07,15,48,9.60
2016,10,07,15,49,14.50
2016,10,07,15,50,14.50
2016,10,07,15,51,22.50
2016,10,07,15,52,22.50
2016,10,07,15,53,17.70
2016,10,07,15,54,12.90
2016,10,07,15,55,16.10
2016,10,07,15,56,17.70
2016,10,07,15,57,17.70
2016,10,07,15,58,17.70
2016,10,07,15,59,14.50
2016,10,07,16,00,12.90
2016,10,07,16,01,11.30
2016,10,07,16,02,11.30
2016,10,07,16,03,14.50
2016,10,07,16,04,11.30
2016,10,07,16,05,8.10
2016,10,07,16,06,14.50
2016,10,07,16,07,19.30
2016,10,07,16,08,19.30
2016,10,07,16,09,17.70
2016,10,07,16,10,19.30
2016,10,07,16,11,19.30
2016,10,07,16,12,14.50
2016,10,07,16,13,12.90
2016,10,07,16,14,14.50
2016,10,07,16,15,16.10
2016,10,07,16,16,14.50
2016,10,07,16,17,17.70
2016,10,07,16,18,12.90
2016,10,07,16,19,9.60
2016,10,07,16,20,17.70
2016,10,07,16,21,17.70
2016,10,07,16,22,4.80
2016,10,07,16,23,6.40
2016,10,07,16,24,8.10
2016,10,07,16,25,14.50
2016,10,07,16,26,11.30
2016,10,07,16,27,6.40
2016,10,07,16,28,4.80
2016,10,07,16,29,16.10
2016,10,07,16,30,12.90
2016,10,07,16,31,12.90
2016,10,07,16,32,8.10
2016,10,07,16,33,8.10
2016,10,07,16,34,6.40
2016,10,07,16,35,6.40
2016,10,07,16,36,11.30
2016,10,07,16,37,8.10
2016,10,07,16,38,6.40
2016,10,07,16,39,9.60
2016,10,07,16,40,8.10
2016,10,07,16,41,4.80
2016,10,07,16,42,3.20
2016,10,07,16,43,1.60
2016,10,07,16,45,3.20
2016,10,07,16,46,4.80
2016,10,07,16,47,6.40
2016,10,07,16,48,3.20
2016,10,07,16,49,3.20
2016,10,07,16,50,6.40
2016,10,07,16,51,6.40
2016,10,07,16,52,4.80
2016,10,07,16,53,6.40
2016,10,07,16,54,4.80
2016,10,07,16,55,4.80
2016,10,07,16,56,6.40
2016,10,07,16,57,3.20
2016,10,07,16,58,4.80
2016,10,07,16,59,4.80
2016,10,07,17,00,6.40
2016,10,07,17,01,8.10
2016,10,07,17,02,3.20
2016,10,07,17,03,4.80
2016,10,07,17,04,12.90
2016,10,07,17,05,12.90
2016,10,07,17,06,12.90
2016,10,07,17,07,9.60
2016,10,07,17,08,8.10
2016,10,07,17,09,6.40
2016,10,07,17,10,4.80
2016,10,07,17,11,6.40
2016,10,07,17,12,3.20
2016,10,07,17,13,6.40
2016,10,07,17,14,6.40
2016,10,07,17,15,9.60
2016,10,07,17,16,9.60
2016,10,07,17,17,11.30
2016,10,07,17,18,11.30
2016,10,07,17,19,16.10
2016,10,07,17,20,14.50
2016,10,07,17,21,8.10
2016,10,07,17,22,8.10
2016,10,07,17,23,11.30